Flight Track Log - Related Links

Times and Time Zones

All times are in EDT time to prevent confusion due to time zone crossing. See the EJA729 flight status page for this flight to view local times or setup timezone preferences in your user account.

Time Position Orientation Groundspeed Altitude Reporting Facility
EDT Latitude Longitude Course Direction KTS MPH feet Rate Location/Type
Thu 08:33:00 PM 42.6675 -83.3986 60° Northeast 171 197 2,100  Level Cleveland Center
Thu 08:34:01 PM 42.6964 -83.3292 60° Northeast 244 281 4,900 3,373 Climbing Cleveland Center
Thu 08:36:21 PM 42.6511 -83.1156 106° East 274 315 13,400 3,420 Climbing Cleveland Center
Thu 08:37:21 PM 42.5658 -83.0189 140° Southeast 325 374 16,300 1,800 Climbing Cleveland Center
Thu 08:38:21 PM 42.4861 -82.9314 141° Southeast 369 425 17,000 350 Climbing Cleveland Center
Thu 08:39:21 PM 42.3925 -82.8267 140° Southeast 411 473 17,000  Level Cleveland Center
Thu 08:40:21 PM 42.3006 -82.7253 141° Southeast 428 493 17,000  Level Cleveland Center
Thu 08:41:21 PM 42.2108 -82.6239 140° Southeast 428 493 17,000  Level Cleveland Center
Thu 08:43:00 PM 42.1226 -82.4541 125° Southeast  Level FlightAware Approximate
Thu 08:44:21 PM 42.0125 -82.2375 125° Southeast 418 481 17,000  Level Cleveland Center
Thu 08:45:21 PM 41.9500 -82.0881 119° Southeast 424 488 17,000  Level Cleveland Center
Thu 08:46:21 PM 41.8914 -81.9472 119° Southeast 424 488 17,000  Level Cleveland Center
Thu 08:47:21 PM 41.8325 -81.8094 120° Southeast 424 488 17,000  Level Cleveland Center
Thu 08:48:21 PM 41.7794 -81.6914 121° Southeast 424 488 17,000  Level Cleveland Center
Thu 08:49:21 PM 41.7161 -81.5650 124° Southeast 419 482 17,000 -300 Level Cleveland Center
Thu 08:50:21 PM 41.6272 -81.4664 140° Southeast 407 468 16,400 -800 Descending Cleveland Center
Thu 08:51:21 PM 41.5361 -81.3653 140° Southeast 425 489 15,400 -1,000 Descending Cleveland Center
Thu 08:52:21 PM 41.4389 -81.2589 141° Southeast 425 489 14,400 -1,050 Descending Cleveland Center
Thu 08:53:21 PM 41.3539 -81.1667 141° Southeast 409 471 13,300 -700 Descending Cleveland Center
Thu 08:54:21 PM 41.2689 -81.0722 140° Southeast 404 465 13,000 -150 Descending Cleveland Center
Thu 08:55:21 PM 41.1817 -80.9775 141° Southeast 404 465 13,000  Level Cleveland Center
Thu 08:56:21 PM 41.0986 -80.8833 139° Southeast 399 459 13,000 -50 Level Cleveland Center
Thu 08:57:21 PM 41.0133 -80.7867 139° Southeast 399 459 12,900 -900 Descending Cleveland Center
Thu 08:58:21 PM 40.9300 -80.6986 141° Southeast 394 453 11,200 -1,450 Descending Cleveland Center
Thu 08:59:21 PM 40.8719 -80.6353 140° Southeast 375 432 10,000 -900 Descending Cleveland Center
Thu 09:00:21 PM 40.7906 -80.5475 141° Southeast 348 400 9,400 -1,350 Descending Cleveland Center
Thu 09:01:21 PM 40.7217 -80.4736 141° Southeast 338 389 7,300 -1,700 Descending Cleveland Center
Thu 09:02:21 PM 40.6569 -80.4025 140° Southeast 319 367 6,000 -850 Descending Cleveland Center
Thu 09:03:21 PM 40.6067 -80.3178 128° Southeast 299 344 5,600 -1,250 Descending Cleveland Center
Thu 09:04:21 PM 40.5669 -80.2114 116° Southeast 291 335 3,500 -1,450 Descending Cleveland Center
Thu 09:05:21 PM 40.5228 -80.1517 134° Southeast 264 304 2,700 -600 Descending Cleveland Center
Thu 09:06:21 PM 40.4792 -80.1328 162° South 196 226 2,300 -500 Descending Cleveland Center
Thu 09:07:21 PM 40.4583 -80.1767 238° Southwest 122 140 1,700 -600 Descending Cleveland Center
Thu 09:09:00 PM 40.4833 -80.2167 282° West  Level FlightAware Approximate

Login

Don't have an account? Register now (free) for customized features, flight alerts, and more!